COSMOS 2499 DEB, 56579

Orbit data source: Space-Track

COSMOS 2499 DEB, 56579 is space debris in LEO originally from a launch on Fri, 23 May 2014 UTC launched from the Plesetsk Missile And Space Complex (PKMTR). Debris objects in space refer to the collection of defunct objects orbiting the Earth. Examples of debris include non-operational satellites, rocket bodies, and fragments generated from explosions, collisions, or faulty payload assembly.

Loading next visibility...
Identifier
56579, 2014-028BN
Orbit
LEO
Country
Flag of CISCIS
Related business
Manufacturer
TsNIIKhM
Mission
Spacecraft
Bus & Motor
Unknown
Mass
Unknown
Launch date (UTC)
2014-05-23 (12 years ago)
Launch vehicle
Unknown
Launch site
Plesetsk Missile And Space Complex (PKMTR)
Object type
Payload
Rocket body
Debris
Shape & HBR
Unknown shape, 0.1 m
Radar Cross Section
Small (<0.1 m²)

Expand to show TLE details & history
Last TLE update: 2 weeks ago

TLE from 2 weeks ago
0 COSMOS 2499 DEB
1 56579U 14028BN  25339.34308087  .00001901  00000-0  75249-2 0  9992
2 56579  82.2672   7.9177 0142090 100.9723 260.7402 12.84019535134186
Epoch: 2025-12-05T08:14Z
TLE epoch observation values (Epoch: 2025-12-05T08:14:02.187Z)
Latitude
0.00008°
Longitude
170.02206°
Altitude
1,347.231 km
Speed
7.176 km/s
True Right ascension
00h 31m 40s
True Declination
0° 00' 00"
Sunlit
Object was in daylight at epoch
Visualization orbit readout
Latitude
Unknown
Longitude
Unknown
Altitude
Unknown
Speed
Unknown
Apparent Right ascension
Unknown
Apparent Declination
Unknown
Sunlit
N/A
Visualization observer readout
Local Sidereal Time
03:22:57
Azimuth
Unknown
Elevation
Unknown
Doppler factor
Unknown
Orbital elements
Apogee altitude
1,432.073 km
Perigee altitude
1,213.232 km
Semi-major axis
7,700.79 km
Eccentricity
0.01421
Inclination
82.2672°
RAAN
7.9177°
Arg. of periapsis
100.9723°
True anomaly
259.13798°
Mean anomaly
260.7402°
Eccentric anomaly
259.9386°
Mean motion
3.21174 °/min
Orbital period
112.09 mins
BSTAR
0.0075249
Loading maneuver chart data...
Computing Atmospheric mass density...
Loading historical data...
Loading historical data...
Loading historical data...
Loading historical data...
Loading historical data...
Loading historical data...
Loading historical data...

Documentation

Showing up to 5 results
|